[Iaude] MPEC N60: 2024 MP2 [a=2.08,e=0.56,i=13.3,H=24.7]
    mpec at cfa.harvard.edu 
    mpec at cfa.harvard.edu
       
    Fri Jul  5 13:28:15 EDT 2024
    
    
  
M.P.E.C. 2024-N60                                  Issued 2024 July 5, 17:26 UT
     The Minor Planet Electronic Circulars contain information on unusual
         minor planets, routine data on comets and natural satellites,
         and occasional editorial announcements.  They are published
    on behalf of Division F of the International Astronomical Union by the
          Minor Planet Center, Smithsonian Astrophysical Observatory,
                          Cambridge, MA 02138, U.S.A.
			  
             Prepared using the Tamkin Foundation Computer Network
                              MPC at CFA.HARVARD.EDU
            URL https://www.minorplanetcenter.net/    ISSN 1523-6714
                                    2024 MP2                                    
Observations:
     K24M02P* C2024 06 28.56012021 11 39.780-18 53 34.96         19.61wXEN060F52
     K24M02P  C2024 06 28.57394821 11 38.039-18 57 47.08         19.84wXEN060F52
     K24M02P  C2024 06 28.58776721 11 36.329-19 01 56.49         20.25wXEN060F52
     K24M02P 6C2024 06 29.10300021 11 12.506-21 28 44.45         19.6 G EN060Z84
     K24M02P 6C2024 06 29.10581621 11 12.187-21 29 29.69         19.8 G EN060Z84
     K24M02P  C2024 06 29.50681821 10 52.943-23 11 45.55         19.68GVEN060F51
     K24M02P 3C2024 06 29.59719621 10 42.269-23 33 38.44         20.07GVEN060T14
     K24M02P 3C2024 06 29.59817421 10 42.162-23 33 51.80         20.05GVEN060T14
     K24M02P 3C2024 06 29.59915421 10 42.045-23 34 06.44         20.03GVEN060T14
     K24M02P 3C2024 06 29.60013321 10 41.937-23 34 20.30         20.04GVEN060T14
     K24M02P KC2024 06 30.54913 21 10 00.79 -26 58 50.4          20.0 VqEN060E94
     K24M02P KC2024 06 30.56241 21 09 59.42 -27 01 28.5          19.7 VqEN060E94
     K24M02P KC2024 06 30.57604 21 09 58.04 -27 04 10.0          19.6 VqEN060E94
     K24M02P KC2024 07 02.61806721 08 16.404-32 34 41.84         20.4 GVEN060474
     K24M02P KC2024 07 02.62065921 08 16.198-32 35 02.26         20.6 GVEN060474
     K24M02P KC2024 07 02.62324921 08 15.941-32 35 22.45         20.6 GVEN060474
     K24M02P KC2024 07 02.62583921 08 15.730-32 35 43.51         20.7 GVEN060474
Observer details:
474 Mount John Observatory, Lake Tekapo.  Observers A. C. Gilmore, P. M.
    Kilmartin.  Measurer P. M. Kilmartin.  0.6-m f/6.3 Reflector + CCD.
E94 Possum Observatory, Gisborne.  Observer J. Drummond.  0.41-m f/4.5
    reflector + CCD.
F51 Pan-STARRS 1, Haleakala.  Observers J. Herman, T. Lowe, P. Minguez, A.
    Schultz, I. Smith.  Measurers K. Chambers, T. de Boer, J. Fairlamb, H.
    Gao, M. Huber, C.-C. Lin, E. Magnier, Y. Ramanjooloo, R. Wainscoat, R.
    Weryk.  1.8-m Ritchey-Chretien + CCD.
F52 Pan-STARRS 2, Haleakala.  Observers J. Herman, T. Lowe, P. Minguez, A.
    Schultz, I. Smith.  Measurers K. Chambers, T. de Boer, J. Fairlamb, H.
    Gao, M. Huber, C.-C. Lin, E. Magnier, Y. Ramanjooloo, R. Wainscoat, R.
    Weryk.  1.8-m Ritchey-Chretien + CCD.
T14 Canada-France-Hawaii Telescope, Maunakea.  Observers R. Wainscoat, A.
    Acohido, T. Burdullis.  Measurers R. Weryk, R. Wainscoat.  3.6-m f/4.1
    reflector + CCD.
Z84 Calar Alto-Schmidt.  Observers R. Kresken, F. Ocana, M. Micheli, L.
    Conversi.  Measurers R. Kresken, F. Ocana, M. Micheli.  0.8-m f/3
    Schmidt + CCD NET Gaia-DR2.
Orbital elements:
2024 MP2                                                 Earth MOID = 0.0233 AU
Epoch 2024 Mar. 31.0 TT = JDT 2460400.5                 Bell                    
M 343.45715              (2000.0)            P               Q                  
n   0.32758649     Peri.  131.38848     -0.62836399     +0.74391251             
a   2.0841008      Node    98.20216     -0.76456364     -0.53662186             
e   0.5551623      Incl.   13.28787     -0.14353097     -0.39828528             
P   3.01           H   24.77          G   0.15           U   9                  
Residuals in seconds of arc
240628 F52 (0.1+  2.1+)   240629 T14  0.0   0.1-    240630 E94  0.4-  0.5+
240628 F52  0.0   0.2+    240629 T14  0.1+  0.5+    240702 474  0.2-  0.4-
240628 F52  0.0   0.4-    240629 T14  0.0   0.1-    240702 474  0.2+  0.1-
240629 Z84  0.0   0.3+    240629 T14  0.0   0.0     240702 474  0.2-  0.4+
240629 Z84  0.1-  0.4+    240630 E94  0.9+  0.1-    240702 474  0.1+  0.0
240629 F51  0.3-  0.5-    240630 E94  0.0   0.2+
Ephemeris:
2024 MP2                 a,e,i = 2.08, 0.56, 13                  q = 0.9271
Date    TT    R. A. (2000) Decl.     Delta      r    Elong.  Phase     V
2024 06 05    08 47 06.4 +68 43 09   0.1353  0.9496    57.9   115.2    24.8
...
2024 06 20    21 31 29.2 +69 07 46   0.03839 1.0099    79.6    98.2    21.3
...
2024 06 28    21 12 11.7 -15 50 39   0.04800 1.0542   140.8    37.6    19.8
...
2024 07 04    21 07 09.3 -35 18 27   0.08683 1.0916   148.4    29.3    20.9
2024 07 05    21 06 21.0 -36 55 31   0.09388 1.0981   148.8    28.6    21.1
2024 07 06    21 05 32.6 -38 18 36   0.1010  1.1047   149.2    28.1    21.3
...
2024 07 12    21 00 39.5 -43 32 50   0.1455  1.1458   150.8    25.6    22.1
...
2024 07 20    20 54 19.2 -46 27 59   0.2084  1.2038   151.8    23.5    22.9
...
2024 08 04    20 45 07.7 -47 16 24   0.3388  1.3187   149.9    22.7    24.1
M. P. C. Staff               (C) Copyright 2024 MPC           M.P.E.C. 2024-N60
    
    
More information about the Iaude
mailing list